Home > Time Zones > World Clock > Weather > Japan > Kyoto > Past weeks

Flag for Japan Weather past 2 weeks in Kyoto, Japan

Now
79 °F

Broken clouds.


Feels Like: 81 °F
Forecast: 65 / 74 °F
Wind: 2 mph from North

Location: Osaka International Airport

Current Time: Aug 28, 2014 at 3:20:48 PM

Latest Report: Aug 28, 2014 at 2:00 PM


Visibility: N/A

Pressure: 29.95 "Hg

Humidity: 70%

Dew point: 68 °F

Location of KyotoLocation

Historic Weather in Kyoto — Graph

°F

Kyoto temperature yesterday

Maximum temperature yesterday: 90 °F (at 12:47 PM)
Minimum temperature yesterday: 75 °F (at 5:00 AM)
Average temperature yesterday: 83 °F

Past Weeks' High & Low Weather Summary

 TemperatureHumidityPressure
High91 °F (Aug 14, 3:00 PM)100% (Aug 24, 5:00 PM)30.01 "Hg (Aug 24, 5:00 PM)
Low68 °F (Aug 28, 6:00 AM)49% (Aug 20, 4:00 PM)29.71 "Hg (Aug 15, 5:00 PM)
Average84 °F72%29.85 "Hg
* Reported Aug 13 2:00 PM — Aug 28 2:00 PM, Kyoto, Weather by CustomWeather, © 2014

Note: Actual official high and low records may vary slightly from our data, if they occured in-between our weather recording intervals... More about our weather records

Advertising

Kyoto weather history for previous 24 hours

 ConditionsComfort  
Time TempWeatherWind HumidityBarometerVisibility
2:00 PM
Aug 28
79 °FBroken clouds.2 mph70%29.95 "HgN/A
1:00 PM77 °FLight rain. Broken clouds.2 mph74%29.95 "HgN/A
12:00 PM75 °FBroken clouds.5 mph74%29.95 "HgN/A
11:00 AM75 °FLight rain. Broken clouds.3 mph74%29.98 "HgN/A
10:00 AM73 °FBroken clouds.2 mph83%29.98 "HgN/A
9:00 AM72 °FLight rain. Broken clouds.1 mph88%30.01 "HgN/A
8:00 AM70 °FLight rain. Broken clouds.6 mph94%29.98 "HgN/A
7:00 AM70 °FSprinkles. Broken clouds.1 mph94%29.98 "HgN/A
6:00 AM68 °FSprinkles. Broken clouds.2 mph100%29.98 "Hg5 mi
5:00 AM70 °FRain showers. Partly cloudy.13 mph94%29.95 "Hg5 mi
8:00 PM
Aug 27
81 °FPartly cloudy.10 mph66%29.92 "HgN/A
7:00 PM81 °FPartly cloudy.12 mph70%29.89 "HgN/A
6:00 PM81 °FBroken clouds.8 mph70%29.86 "HgN/A
5:00 PM84 °FPartly sunny.13 mph62%29.86 "HgN/A
4:00 PM88 °FPartly sunny.12 mph59%29.83 "HgN/A
3:00 PM90 °FPartly sunny.15 mph55%29.83 "HgN/A
Weather by CustomWeather, © 2014

See weather overviewHow to use our weather pages